DW9417 Weather Reports


Display with metric or nautical units.
time (UTC)temp
F
wind
direction
speed
MPH
gust
MPH
rain 1hr
in
rain 24hr
in
rain mn
in
humidity
%
barometer
mb
20260509001535 53 46 4.0 11.0 0.00 0.00 0.00 66 1029.5
20260509000034 52 40 5.0 12.0 0.00 0.00 0.00 67 1029.5
20260508234532 51 38 5.0 10.0 0.00 0.00 0.00 68 1029.3
20260508233031 50 62 4.0 9.0 0.00 0.00 0.00 69 1029.2
20260508231529 49 78 4.0 6.0 0.00 0.00 0.00 71 1029.2
20260508230027 49 29 3.0 8.0 0.00 0.00 0.00 71 1029.2
20260508224528 49 349 3.0 6.0 0.00 0.00 0.00 71 1029.1
20260508223040 48 56 1.0 4.0 0.00 0.00 0.00 71 1029.0
20260508221522 49 51 1.0 4.0 0.00 0.00 0.00 70 1028.9
20260508220019 49 59 1.0 3.0 0.00 0.00 0.00 70 1028.8
20260508214518 49 59 0.0 3.0 0.00 0.00 0.00 69 1029.0
20260508213022 50 46 2.0 5.0 0.00 0.00 0.00 69 1028.8
20260508211516 50 53 2.0 4.0 0.00 0.00 0.00 68 1028.8
20260508210018 50 55 2.0 6.0 0.00 0.00 0.00 68 1028.6
20260508204511 50 53 4.0 6.0 0.00 0.00 0.00 68 1028.6
20260508203009 50 82 3.0 6.0 0.00 0.00 0.00 69 1028.5
20260508201507 50 63 2.0 6.0 0.00 0.00 0.00 68 1028.4
20260508200009 51 127 2.0 5.0 0.00 0.00 0.00 67 1028.4
20260508194502 51 50 3.0 6.0 0.00 0.00 0.00 66 1028.3
20260508193001 52 40 2.0 4.0 0.00 0.00 0.00 64 1028.5
20260508191601 52 39 3.0 5.0 0.00 0.00 0.00 64 1028.5
20260508190100 53 21 2.0 5.0 0.00 0.00 0.00 63 1028.4
20260508184601 53 74 0.0 4.0 0.00 0.00 0.00 63 1028.6
20260508183057 53 77 2.0 6.0 0.00 0.00 0.00 63 1028.4
20260508181558 53 89 2.0 6.0 0.00 0.00 0.00 63 1028.3
20260508180054 52 63 1.0 4.0 0.00 0.00 0.00 65 1028.4
20260508174558 51 65 0.0 0.0 0.00 0.00 0.00 65 1028.3
20260508173051 52 65 0.0 3.0 0.00 0.00 0.00 64 1028.3
20260508171549 52 86 3.0 6.0 0.00 0.00 0.00 64 1028.2
20260508170047 53 82 5.0 8.0 0.00 0.00 0.00 63 1028.1
20260508164551 52 88 3.0 6.0 0.00 0.00 0.00 63 1028.2
20260508163043 53 89 3.0 7.0 0.00 0.00 0.00 62 1028.2
20260508161541 53 51 2.0 5.0 0.00 0.00 0.00 61 1028.2
20260508160037 52 57 1.0 5.0 0.00 0.00 0.00 63 1028.2
20260508154541 52 80 0.0 4.0 0.00 0.00 0.00 62 1028.2
20260508153040 52 72 3.0 4.0 0.00 0.00 0.00 62 1028.2
20260508151534 53 83 1.0 4.0 0.00 0.00 0.00 60 1028.3
20260508150051 54 38 0.0 0.0 0.00 0.00 0.00 59 1028.4
20260508144534 54 38 0.0 2.0 0.00 0.00 0.00 58 1028.3
20260508143047 56 38 0.0 3.0 0.00 0.00 0.00 56 1028.3
20260508141533 57 58 3.0 7.0 0.00 0.00 0.00 55 1028.3
20260508140031 56 76 3.0 9.0 0.00 0.00 0.00 55 1028.3
20260508134531 54 86 3.0 6.0 0.00 0.00 0.00 58 1028.2
20260508133032 53 86 1.0 3.0 0.00 0.00 0.00 59 1028.2
20260508131530 54 86 2.0 4.0 0.00 0.00 0.00 57 1028.2
20260508130030 54 86 3.0 6.0 0.00 0.00 0.00 58 1028.2
20260508124532 53 86 1.0 3.0 0.00 0.00 0.00 62 1028.1
20260508123033 52 85 0.0 0.0 0.00 0.00 0.00 62 1027.9
20260508121529 53 82 0.0 0.0 0.00 0.00 0.00 61 1027.8
20260508120029 54 83 0.0 0.0 0.00 0.00 0.00 61 1027.7
20260508114532 54 82 0.0 0.0 0.00 0.00 0.00 61 1027.6
20260508113027 56 82 0.0 0.0 0.00 0.00 0.00 59 1027.6
20260508111527 57 86 0.0 0.0 0.00 0.00 0.00 56 1027.5
20260508110027 59 86 0.0 0.0 0.00 0.00 0.00 54 1027.5
20260508104526 60 86 1.0 4.0 0.00 0.00 0.00 52 1027.5
20260508103026 61 96 2.0 4.0 0.00 0.00 0.00 51 1027.4
20260508101525 62 80 4.0 6.0 0.00 0.00 0.00 50 1027.3
20260508100027 63 86 2.0 4.0 0.00 0.00 0.00 49 1027.2
20260508094523 64 80 3.0 6.0 0.00 0.00 0.00 47 1027.0
20260508093026 65 86 3.0 8.0 0.00 0.00 0.00 45 1026.9
20260508091522 67 101 7.0 10.0 0.00 0.00 0.00 44 1026.9
20260508090024 67 116 7.0 12.0 0.00 0.00 0.00 44 1026.8
20260508084521 68 11 8.0 12.0 0.00 0.00 0.00 43 1026.9
20260508083020 68 82 7.0 12.0 0.00 0.00 0.00 43 1026.8
20260508081525 69 77 7.0 13.0 0.00 0.00 0.00 42 1026.7
20260508080030 69 86 9.0 14.0 0.00 0.00 0.00 42 1026.8
20260508074519 69 117 9.0 13.0 0.00 0.00 0.00 42 1026.8
20260508073018 70 28 5.0 12.0 0.00 0.00 0.00 42 1026.8
20260508071517 70 111 7.0 14.0 0.00 0.00 0.00 42 1026.8
20260508070021 70 98 9.0 13.0 0.00 0.00 0.00 43 1026.8
20260508064529 70 97 8.0 11.0 0.00 0.00 0.00 43 1027.0
20260508063010 70 38 5.0 14.0 0.00 0.00 0.00 43 1027.0
20260508061512 70 105 11.0 15.0 0.00 0.00 0.00 43 1027.1
20260508060007 69 92 1.0 15.0 0.00 0.00 0.00 44 1027.1
20260508054504 70 54 6.0 13.0 0.00 0.00 0.00 44 1027.4
20260508053106 70 360 5.0 15.0 0.00 0.00 0.00 45 1027.5
20260508051617 70 31 6.0 10.0 0.00 0.00 0.00 45 1027.8
20260508050113 69 63 2.0 13.0 0.00 0.00 0.00 46 1028.0
20260508044557 69 30 5.0 12.0 0.00 0.00 0.00 46 1028.3
20260508043054 69 42 4.0 12.0 0.00 0.00 0.00 47 1028.5
20260508041555 69 55 1.0 14.0 0.00 0.00 0.00 48 1028.7
20260508040054 67 41 6.0 16.0 0.00 0.00 0.00 51 1029.1
20260508034546 67 74 7.0 13.0 0.00 0.00 0.00 53 1029.4
20260508033044 67 40 6.0 15.0 0.00 0.00 0.00 52 1029.6
20260508031540 67 68 6.0 13.0 0.00 0.00 0.00 51 1029.7
20260508030036 66 40 5.0 15.0 0.00 0.00 0.00 55 1030.0
20260508024535 64 37 6.0 13.0 0.00 0.00 0.00 60 1030.2
20260508023030 64 59 7.0 15.0 0.00 0.00 0.00 62 1030.5
20260508021532 63 34 7.0 13.0 0.00 0.00 0.00 62 1030.7
20260508020027 63 82 6.0 12.0 0.00 0.00 0.00 64 1030.9
20260508014526 62 57 5.0 15.0 0.00 0.00 0.00 66 1031.0
20260508013023 62 29 6.0 14.0 0.00 0.00 0.00 67 1031.2
20260508011520 61 71 7.0 13.0 0.00 0.00 0.00 69 1031.3
20260508010016 60 97 7.0 13.0 0.00 0.00 0.00 71 1031.4
20260508004511 58 15 5.0 10.0 0.00 0.00 0.00 75 1031.6
20260508003009 56 55 4.0 9.0 0.00 0.00 0.00 79 1031.7